TimeEST,TemperatureF,Dew PointF,Humidity,Sea Level PressureIn,VisibilityMPH,Wind Direction,Wind SpeedMPH,Gust SpeedMPH,PrecipitationIn,Events,Conditions,WindDirDegrees,DateUTC
12:52 AM,28.0,21.0,75,29.65,10.0,Variable,6.9,-,N/A,,Overcast,0,2013-03-04 05:52:00
1:52 AM,27.0,21.0,78,29.65,10.0,NW,6.9,-,N/A,,Overcast,310,2013-03-04 06:52:00
2:52 AM,26.1,19.0,75,29.64,10.0,NW,8.1,17.3,N/A,,Overcast,310,2013-03-04 07:52:00
3:52 AM,26.1,18.0,71,29.65,10.0,WNW,5.8,-,N/A,,Mostly Cloudy,300,2013-03-04 08:52:00
4:45 AM,24.8,17.6,74,29.60,10.0,West,5.8,-,N/A,,Mostly Cloudy,280,2013-03-04 09:45:00
4:52 AM,24.1,17.1,75,29.66,10.0,West,9.2,-,N/A,,Scattered Clouds,270,2013-03-04 09:52:00
6:25 AM,23.0,15.8,74,29.61,10.0,WNW,9.2,23.0,N/A,,Mostly Cloudy,290,2013-03-04 11:25:00
6:52 AM,23.0,16.0,74,29.67,10.0,Variable,6.9,18.4,N/A,,Overcast,0,2013-03-04 11:52:00
7:52 AM,24.1,16.0,71,29.67,10.0,West,9.2,-,N/A,,Overcast,280,2013-03-04 12:52:00
8:14 AM,24.8,15.8,69,29.62,10.0,NW,9.2,20.7,N/A,,Scattered Clouds,310,2013-03-04 13:14:00
8:45 AM,24.8,15.8,69,29.62,10.0,WNW,8.1,18.4,N/A,,Mostly Cloudy,290,2013-03-04 13:45:00
8:52 AM,26.1,16.0,66,29.67,10.0,NW,8.1,20.7,N/A,,Mostly Cloudy,310,2013-03-04 13:52:00
9:52 AM,27.0,17.1,66,29.66,10.0,Variable,6.9,21.9,N/A,,Mostly Cloudy,0,2013-03-04 14:52:00
10:52 AM,28.9,17.1,61,29.65,10.0,Variable,4.6,-,N/A,,Overcast,0,2013-03-04 15:52:00
11:07 AM,28.4,17.6,64,29.60,10.0,WNW,9.2,16.1,N/A,,Mostly Cloudy,290,2013-03-04 16:07:00
11:52 AM,30.9,18.0,59,29.65,10.0,WNW,6.9,-,N/A,,Overcast,290,2013-03-04 16:52:00
12:52 PM,32.0,19.0,59,29.64,10.0,WNW,13.8,24.2,N/A,,Overcast,300,2013-03-04 17:52:00
1:52 PM,30.9,19.0,61,29.63,10.0,WNW,11.5,19.6,N/A,,Overcast,300,2013-03-04 18:52:00
2:52 PM,32.0,19.0,59,29.64,10.0,WNW,12.7,20.7,0.00,,Overcast,300,2013-03-04 19:52:00
3:52 PM,30.9,21.0,67,29.65,10.0,WNW,13.8,19.6,N/A,,Overcast,300,2013-03-04 20:52:00
4:52 PM,30.0,21.0,69,29.67,3.0,Variable,6.9,20.7,0.00,Snow,Light Snow,0,2013-03-04 21:52:00
5:09 PM,30.2,21.2,69,29.62,2.5,WNW,8.1,19.6,0.00,Snow,Light Snow,300,2013-03-04 22:09:00
5:16 PM,30.2,21.2,69,29.62,8.0,NW,8.1,16.1,0.00,Snow,Light Snow,310,2013-03-04 22:16:00
5:52 PM,30.9,19.9,64,29.70,9.0,Variable,4.6,-,0.00,,Overcast,0,2013-03-04 22:52:00
6:52 PM,28.9,19.9,69,29.73,10.0,NNW,8.1,17.3,0.00,,Overcast,340,2013-03-04 23:52:00
7:52 PM,28.9,19.9,69,29.75,10.0,Variable,6.9,17.3,N/A,,Overcast,0,2013-03-05 00:52:00
8:52 PM,28.0,19.9,72,29.77,10.0,Variable,6.9,-,0.00,,Overcast,0,2013-03-05 01:52:00
9:23 PM,26.6,19.4,74,29.72,10.0,Variable,3.5,-,N/A,,Overcast,0,2013-03-05 02:23:00
9:52 PM,27.0,19.0,72,29.78,10.0,North,5.8,-,N/A,,Overcast,350,2013-03-05 02:52:00
10:52 PM,27.0,19.0,72,29.80,10.0,NNW,5.8,-,N/A,,Overcast,340,2013-03-05 03:52:00
11:52 PM,26.1,19.0,75,29.80,10.0,North,6.9,-,N/A,,Clear,350,2013-03-05 04:52:00